This is the latest recevied weather packets stored in our database for station/object W4MLN-3. If no packets are shown the sender has not sent any weather packets the latest 10 day(s).
| Time | Temp. | Humidity | Pressure | Rain* | Wind** | Luminosity | Snow |
|---|---|---|---|---|---|---|---|
| 1777470303 | 15.56° C | 92% | 1012.8 hPa | 0 mm | - | - | - |
| 1777470003 | 15.56° C | 92% | 1012.9 hPa | 0 mm | - | - | - |
| 1777469724 | 15.56° C | 93% | 1012.9 hPa | 0 mm | - | - | - |
| 1777469403 | 15.56° C | 94% | 1012.9 hPa | 0.25 mm | - | - | - |
| 1777469103 | 15.56° C | 94% | 1012.9 hPa | 0.25 mm | - | - | - |
| 1777468803 | 15.56° C | 95% | 1012.9 hPa | 0.25 mm | - | - | - |
| 1777468503 | 15° C | 95% | 1012.8 hPa | 0.25 mm | - | - | - |
| 1777468203 | 15° C | 94% | 1012.9 hPa | 0.51 mm | - | - | - |
| 1777467903 | 14.44° C | 94% | 1012.9 hPa | 2.79 mm | - | - | - |
| 1777467603 | 14.44° C | 94% | 1013.1 hPa | 3.3 mm | - | - | - |
| 1777467303 | 14.44° C | 94% | 1013.3 hPa | 3.3 mm | - | - | - |
| 1777467003 | 14.44° C | 94% | 1013.3 hPa | 3.56 mm | - | - | - |
| 1777466703 | 14.44° C | 94% | 1013.4 hPa | 3.56 mm | - | - | - |
| 1777466404 | 14.44° C | 94% | 1013.3 hPa | 3.81 mm | - | - | - |
| 1777466103 | 14.44° C | 94% | 1013.3 hPa | 3.81 mm | - | - | - |
| 1777465804 | 14.44° C | 94% | 1013.4 hPa | 4.32 mm | - | - | - |
| 1777465503 | 14.44° C | 93% | 1013.5 hPa | 4.32 mm | - | - | - |
| 1777465224 | 14.44° C | 93% | 1013.5 hPa | 5.59 mm | - | - | - |
| 1777464903 | 14.44° C | 93% | 1013.5 hPa | 5.59 mm | - | - | - |
| 1777464603 | 14.44° C | 93% | 1013.7 hPa | 5.59 mm | - | - | - |
| 1777464303 | 14.44° C | 92% | 1013.5 hPa | 3.3 mm | - | - | - |
| 1777464003 | 14.44° C | 92% | 1013.5 hPa | 2.79 mm | - | - | - |
| 1777463403 | 14.44° C | 92% | 1013.4 hPa | 2.54 mm | - | - | - |
| 1777463103 | 14.44° C | 92% | 1013.4 hPa | 2.29 mm | - | - | - |
| 1777462803 | 14.44° C | 91% | 1013.4 hPa | 2.29 mm | - | - | - |
* Rain latest hour (hover to see other rain measurements)
** Current wind speed in m/s (hover to see current wind gust speed)